Coperto con pioggia
Coperto con pioggia leggera
Coperto
Coperto con pioggia leggera
Coperto con pioggia leggera
Coperto con pioggia leggera
Coperto con pioggia leggera
(°C)
(°C)
-4°
-4°
-4°
-3°
-3°
-3°
-3°
ENE
ENE
ENE
E
ENE
E
E
(km/h)
21-36
22-36
22-37
22-36
22-35
21-34
21-33
(mm)
3
0.1
0
0.1
1.2
0.3
0.2
(%)
34
33
40
40
48
50
52

Elevazione del sole

/ 42.9°
sun-icon
UV 1
05:25
20:18
Luna piena (186°)
21:12
05:20

METAR per 55.31°N 61.5°E (USCC)

Ora Condizioni Temperatura/
Punto di rugiada
Vento Visibilità Meteo Nuvole Pressione Cambiamento Grezzo
MVFR 3°C / -2°C 60º 10kt 9700m Light Showers Rain Light Showers Small Hail and/or Snow 3.00mm precipitation Broken Clouds 2600ft 1024 No Significant change. Runway 09: Wet or puddles, 51-100% contamination with <1mm, friction coefficient 0.55. USCC 240530Z 06005MPS 9999 -SHRAGS BKN026CB 03/M02 Q1024 R09/290055 NOSIG RMK QFE747
MVFR 3°C / -2°C 80º 10kt 9700m Light Showers Rain 3.00mm precipitation Broken Clouds 2600ft 1024 No Significant change. Runway 09: Wet or puddles, 51-100% contamination with <1mm, friction coefficient 0.55. USCC 240500Z 08005MPS 9999 -SHRA BKN026CB 03/M02 Q1024 R09/290055 NOSIG RMK QFE747
MVFR 3°C / -3°C 90º 10kt 9700m Light Showers Rain 3.00mm precipitation Broken Clouds 2600ft 1024 No Significant change USCC 240430Z 09005MPS 9999 -SHRA BKN026CB 03/M03 Q1024 R09/000060 NOSIG RMK QFE747
MVFR 3°C / -3°C 90º 10kt 9700m - Broken Clouds 2600ft 1024 No Significant change USCC 240400Z 09005MPS 9999 BKN026CB 03/M03 Q1024 R09/000060 NOSIG RMK QFE747
MVFR 3°C / -3°C 90º 12kt 9700m - Broken Clouds 3000ft 1023 No Significant change USCC 240330Z 09006MPS 9999 BKN030CB 03/M03 Q1023 R09/000060 NOSIG RMK QFE747
VFR 3°C / -2°C 80º 10kt 9700m - Broken Clouds 4000ft 1024 No Significant change USCC 240300Z 08005MPS 9999 BKN040CB 03/M02 Q1024 R09/000060 NOSIG RMK QFE747
VFR 3°C / -2°C 80º 8kt 9700m - Broken Clouds 4000ft 1023 No Significant change USCC 240230Z 08004MPS 9999 BKN040CB 03/M02 Q1023 R09/000060 NOSIG RMK QFE747
VFR 2°C / -2°C 80º 8kt 9700m - Broken Clouds 4000ft 1023 No Significant change USCC 240200Z 08004MPS 9999 BKN040CB 02/M02 Q1023 R09/000060 NOSIG RMK QFE747
VFR 2°C / -2°C 80º 6kt 9700m - Broken Clouds 4000ft 1023 No Significant change USCC 240130Z 08003MPS 9999 BKN040CB 02/M02 Q1023 R09/000060 NOSIG RMK QFE747
VFR 2°C / -2°C 80º 8kt 9700m - Broken Clouds 4000ft 1023 No Significant change USCC 240100Z 08004MPS 9999 BKN040CB 02/M02 Q1023 R09/000060 NOSIG RMK QFE746
VFR 2°C / -1°C 80º 6kt 9700m - Broken Clouds 4000ft 1023 No Significant change USCC 240030Z 08003MPS 9999 BKN040CB 02/M01 Q1023 R09/000060 NOSIG RMK QFE746
VFR 2°C / -1°C 70º 6kt 9700m - Broken Clouds 4000ft 1023 No Significant change USCC 240000Z 07003MPS 9999 BKN040CB 02/M01 Q1023 R09/000060 NOSIG RMK QFE746
VFR 2°C / -1°C 70º 8kt 9700m - Broken Clouds 4000ft 1023 No Significant change USCC 232330Z 07004MPS 9999 BKN040CB 02/M01 Q1023 R09/000060 NOSIG RMK QFE746
VFR 2°C / -1°C 60º 8kt 9700m - Broken Clouds 4000ft 1023 No Significant change USCC 232300Z 06004MPS 9999 BKN040CB 02/M01 Q1023 R09/000060 NOSIG RMK QFE747
VFR 2°C / -1°C 60º 8kt 9700m - Broken Clouds 4000ft 1023 No Significant change USCC 232230Z 06004MPS 9999 BKN040CB 02/M01 Q1023 R09/000060 NOSIG RMK QFE747
VFR 2°C / -1°C 60º 8kt 9700m - Broken Clouds 4000ft 1023 No Significant change. Runway 09: Wet or puddles, 51-100% contamination with <1mm, friction coefficient 0.45. USCC 232200Z 06004MPS 9999 BKN040CB 02/M01 Q1023 R09/290045 NOSIG RMK QFE747
MVFR 2°C / -1°C 50º 6kt 9700m - Broken Clouds 3000ft 1023 No Significant change. Runway 09: Wet or puddles, 51-100% contamination with <1mm, friction coefficient 0.45. USCC 232130Z 05003MPS 9999 BKN030CB 02/M01 Q1023 R09/290045 NOSIG RMK QFE747
MVFR 2°C / -1°C 70º 6kt 9700m - Broken Clouds 3000ft 1023 No Significant change. Runway 09: Wet or puddles, 51-100% contamination with <1mm, friction coefficient 0.45. USCC 232100Z 07003MPS 9999 BKN030CB 02/M01 Q1023 R09/290045 NOSIG RMK QFE746
MVFR 2°C / -1°C 80º 4kt 9700m - Broken Clouds 2600ft 1023 Temporary: Visibility 1500. Showers Rain . Broken Clouds 1100ft. Cumulonimbus RMK QFE747 . Runway 09: Wet or puddles, 51-100% contamination with <1mm, friction coefficient 0.45. USCC 232030Z 08002MPS 9999 BKN026CB 02/M01 Q1023 R09/290045 TEMPO 1500 SHRA BKN011CB RMK QFE747
MVFR 2°C / -2°C 80º 6kt 9700m - Broken Clouds 2600ft 1023 Temporary: Visibility 1500. Showers Rain . Broken Clouds 1100ft. Cumulonimbus RMK QFE747 . Runway 09: Wet or puddles, 51-100% contamination with <1mm, friction coefficient 0.45. USCC 232000Z 08003MPS 9999 BKN026CB 02/M02 Q1023 R09/290045 TEMPO 1500 SHRA BKN011CB RMK QFE747
MVFR 2°C / -1°C 50º 10kt 9700m - Broken Clouds 3000ft 1023 Temporary: Visibility 1500. Showers Rain . Broken Clouds 1100ft. Cumulonimbus RMK QFE746 . Runway 09: Wet or puddles, 51-100% contamination with <1mm, friction coefficient 0.45. USCC 231930Z 05005MPS 9999 BKN030CB 02/M01 Q1023 R09/290045 TEMPO 1500 SHRA BKN011CB RMK QFE746
MVFR 2°C / 0°C 50º 4kt 9700m - Broken Clouds 3000ft 1024 Temporary: Visibility 1500. Showers Rain . Broken Clouds 1100ft. Cumulonimbus RMK QFE747 . Runway 09: Wet or puddles, 51-100% contamination with <1mm, friction coefficient 0.45. USCC 231900Z 05002MPS 9999 BKN030CB 02/00 Q1024 R09/290045 TEMPO 1500 SHRA BKN011CB RMK QFE747
MVFR 2°C / 1°C 10º 2kt 9700m - Broken Clouds 3000ft 1023 Temporary: Visibility 1500. Showers Rain . Broken Clouds 1100ft. Cumulonimbus RMK QFE747 . Runway 09: Wet or puddles, 51-100% contamination with <1mm, friction coefficient 0.45. USCC 231830Z 01001MPS 9999 BKN030CB 02/01 Q1023 R09/290045 TEMPO 1500 SHRA BKN011CB RMK QFE747
MVFR 3°C / 1°C 70º 4kt 9700m - Broken Clouds 3000ft 1023 Temporary: Visibility 1500. Showers Rain . Broken Clouds 1100ft. Cumulonimbus RMK QFE747 . Runway 09: Wet or puddles, 51-100% contamination with <1mm, friction coefficient 0.45. USCC 231800Z 07002MPS 9999 BKN030CB 03/01 Q1023 R09/290045 TEMPO 1500 SHRA BKN011CB RMK QFE747

MVFR

3°C / -2°C

[Più]
Vento 60º 10kt
Visibilità 9700m
Meteo Light Showers Rain Light Showers Small Hail and/or Snow 3.00mm precipitation
Nuvole Broken Clouds 2600ft
Pressione 1024
Cambiamento No Significant change. Runway 09: Wet or puddles, 51-100% contamination with <1mm, friction coefficient 0.55.
Grezzo USCC 240530Z 06005MPS 9999 -SHRAGS BKN026CB 03/M02 Q1024 R09/290055 NOSIG RMK QFE747

MVFR

3°C / -2°C

[Più]
Vento 80º 10kt
Visibilità 9700m
Meteo Light Showers Rain 3.00mm precipitation
Nuvole Broken Clouds 2600ft
Pressione 1024
Cambiamento No Significant change. Runway 09: Wet or puddles, 51-100% contamination with <1mm, friction coefficient 0.55.
Grezzo USCC 240500Z 08005MPS 9999 -SHRA BKN026CB 03/M02 Q1024 R09/290055 NOSIG RMK QFE747

MVFR

3°C / -3°C

[Più]
Vento 90º 10kt
Visibilità 9700m
Meteo Light Showers Rain 3.00mm precipitation
Nuvole Broken Clouds 2600ft
Pressione 1024
Cambiamento No Significant change
Grezzo USCC 240430Z 09005MPS 9999 -SHRA BKN026CB 03/M03 Q1024 R09/000060 NOSIG RMK QFE747

MVFR

3°C / -3°C

[Più]
Vento 90º 10kt
Visibilità 9700m
Meteo -
Nuvole Broken Clouds 2600ft
Pressione 1024
Cambiamento No Significant change
Grezzo USCC 240400Z 09005MPS 9999 BKN026CB 03/M03 Q1024 R09/000060 NOSIG RMK QFE747

MVFR

3°C / -3°C

[Più]
Vento 90º 12kt
Visibilità 9700m
Meteo -
Nuvole Broken Clouds 3000ft
Pressione 1023
Cambiamento No Significant change
Grezzo USCC 240330Z 09006MPS 9999 BKN030CB 03/M03 Q1023 R09/000060 NOSIG RMK QFE747

VFR

3°C / -2°C

[Più]
Vento 80º 10kt
Visibilità 9700m
Meteo -
Nuvole Broken Clouds 4000ft
Pressione 1024
Cambiamento No Significant change
Grezzo USCC 240300Z 08005MPS 9999 BKN040CB 03/M02 Q1024 R09/000060 NOSIG RMK QFE747

VFR

3°C / -2°C

[Più]
Vento 80º 8kt
Visibilità 9700m
Meteo -
Nuvole Broken Clouds 4000ft
Pressione 1023
Cambiamento No Significant change
Grezzo USCC 240230Z 08004MPS 9999 BKN040CB 03/M02 Q1023 R09/000060 NOSIG RMK QFE747

VFR

2°C / -2°C

[Più]
Vento 80º 8kt
Visibilità 9700m
Meteo -
Nuvole Broken Clouds 4000ft
Pressione 1023
Cambiamento No Significant change
Grezzo USCC 240200Z 08004MPS 9999 BKN040CB 02/M02 Q1023 R09/000060 NOSIG RMK QFE747

VFR

2°C / -2°C

[Più]
Vento 80º 6kt
Visibilità 9700m
Meteo -
Nuvole Broken Clouds 4000ft
Pressione 1023
Cambiamento No Significant change
Grezzo USCC 240130Z 08003MPS 9999 BKN040CB 02/M02 Q1023 R09/000060 NOSIG RMK QFE747

VFR

2°C / -2°C

[Più]
Vento 80º 8kt
Visibilità 9700m
Meteo -
Nuvole Broken Clouds 4000ft
Pressione 1023
Cambiamento No Significant change
Grezzo USCC 240100Z 08004MPS 9999 BKN040CB 02/M02 Q1023 R09/000060 NOSIG RMK QFE746

VFR

2°C / -1°C

[Più]
Vento 80º 6kt
Visibilità 9700m
Meteo -
Nuvole Broken Clouds 4000ft
Pressione 1023
Cambiamento No Significant change
Grezzo USCC 240030Z 08003MPS 9999 BKN040CB 02/M01 Q1023 R09/000060 NOSIG RMK QFE746

VFR

2°C / -1°C

[Più]
Vento 70º 6kt
Visibilità 9700m
Meteo -
Nuvole Broken Clouds 4000ft
Pressione 1023
Cambiamento No Significant change
Grezzo USCC 240000Z 07003MPS 9999 BKN040CB 02/M01 Q1023 R09/000060 NOSIG RMK QFE746

VFR

2°C / -1°C

[Più]
Vento 70º 8kt
Visibilità 9700m
Meteo -
Nuvole Broken Clouds 4000ft
Pressione 1023
Cambiamento No Significant change
Grezzo USCC 232330Z 07004MPS 9999 BKN040CB 02/M01 Q1023 R09/000060 NOSIG RMK QFE746

VFR

2°C / -1°C

[Più]
Vento 60º 8kt
Visibilità 9700m
Meteo -
Nuvole Broken Clouds 4000ft
Pressione 1023
Cambiamento No Significant change
Grezzo USCC 232300Z 06004MPS 9999 BKN040CB 02/M01 Q1023 R09/000060 NOSIG RMK QFE747

VFR

2°C / -1°C

[Più]
Vento 60º 8kt
Visibilità 9700m
Meteo -
Nuvole Broken Clouds 4000ft
Pressione 1023
Cambiamento No Significant change
Grezzo USCC 232230Z 06004MPS 9999 BKN040CB 02/M01 Q1023 R09/000060 NOSIG RMK QFE747

VFR

2°C / -1°C

[Più]
Vento 60º 8kt
Visibilità 9700m
Meteo -
Nuvole Broken Clouds 4000ft
Pressione 1023
Cambiamento No Significant change. Runway 09: Wet or puddles, 51-100% contamination with <1mm, friction coefficient 0.45.
Grezzo USCC 232200Z 06004MPS 9999 BKN040CB 02/M01 Q1023 R09/290045 NOSIG RMK QFE747

MVFR

2°C / -1°C

[Più]
Vento 50º 6kt
Visibilità 9700m
Meteo -
Nuvole Broken Clouds 3000ft
Pressione 1023
Cambiamento No Significant change. Runway 09: Wet or puddles, 51-100% contamination with <1mm, friction coefficient 0.45.
Grezzo USCC 232130Z 05003MPS 9999 BKN030CB 02/M01 Q1023 R09/290045 NOSIG RMK QFE747

MVFR

2°C / -1°C

[Più]
Vento 70º 6kt
Visibilità 9700m
Meteo -
Nuvole Broken Clouds 3000ft
Pressione 1023
Cambiamento No Significant change. Runway 09: Wet or puddles, 51-100% contamination with <1mm, friction coefficient 0.45.
Grezzo USCC 232100Z 07003MPS 9999 BKN030CB 02/M01 Q1023 R09/290045 NOSIG RMK QFE746

MVFR

2°C / -1°C

[Più]
Vento 80º 4kt
Visibilità 9700m
Meteo -
Nuvole Broken Clouds 2600ft
Pressione 1023
Cambiamento Temporary: Visibility 1500. Showers Rain . Broken Clouds 1100ft. Cumulonimbus RMK QFE747 . Runway 09: Wet or puddles, 51-100% contamination with <1mm, friction coefficient 0.45.
Grezzo USCC 232030Z 08002MPS 9999 BKN026CB 02/M01 Q1023 R09/290045 TEMPO 1500 SHRA BKN011CB RMK QFE747

MVFR

2°C / -2°C

[Più]
Vento 80º 6kt
Visibilità 9700m
Meteo -
Nuvole Broken Clouds 2600ft
Pressione 1023
Cambiamento Temporary: Visibility 1500. Showers Rain . Broken Clouds 1100ft. Cumulonimbus RMK QFE747 . Runway 09: Wet or puddles, 51-100% contamination with <1mm, friction coefficient 0.45.
Grezzo USCC 232000Z 08003MPS 9999 BKN026CB 02/M02 Q1023 R09/290045 TEMPO 1500 SHRA BKN011CB RMK QFE747

MVFR

2°C / -1°C

[Più]
Vento 50º 10kt
Visibilità 9700m
Meteo -
Nuvole Broken Clouds 3000ft
Pressione 1023
Cambiamento Temporary: Visibility 1500. Showers Rain . Broken Clouds 1100ft. Cumulonimbus RMK QFE746 . Runway 09: Wet or puddles, 51-100% contamination with <1mm, friction coefficient 0.45.
Grezzo USCC 231930Z 05005MPS 9999 BKN030CB 02/M01 Q1023 R09/290045 TEMPO 1500 SHRA BKN011CB RMK QFE746

MVFR

2°C / 0°C

[Più]
Vento 50º 4kt
Visibilità 9700m
Meteo -
Nuvole Broken Clouds 3000ft
Pressione 1024
Cambiamento Temporary: Visibility 1500. Showers Rain . Broken Clouds 1100ft. Cumulonimbus RMK QFE747 . Runway 09: Wet or puddles, 51-100% contamination with <1mm, friction coefficient 0.45.
Grezzo USCC 231900Z 05002MPS 9999 BKN030CB 02/00 Q1024 R09/290045 TEMPO 1500 SHRA BKN011CB RMK QFE747

MVFR

2°C / 1°C

[Più]
Vento 10º 2kt
Visibilità 9700m
Meteo -
Nuvole Broken Clouds 3000ft
Pressione 1023
Cambiamento Temporary: Visibility 1500. Showers Rain . Broken Clouds 1100ft. Cumulonimbus RMK QFE747 . Runway 09: Wet or puddles, 51-100% contamination with <1mm, friction coefficient 0.45.
Grezzo USCC 231830Z 01001MPS 9999 BKN030CB 02/01 Q1023 R09/290045 TEMPO 1500 SHRA BKN011CB RMK QFE747

MVFR

3°C / 1°C

[Più]
Vento 70º 4kt
Visibilità 9700m
Meteo -
Nuvole Broken Clouds 3000ft
Pressione 1023
Cambiamento Temporary: Visibility 1500. Showers Rain . Broken Clouds 1100ft. Cumulonimbus RMK QFE747 . Runway 09: Wet or puddles, 51-100% contamination with <1mm, friction coefficient 0.45.
Grezzo USCC 231800Z 07002MPS 9999 BKN030CB 03/01 Q1023 R09/290045 TEMPO 1500 SHRA BKN011CB RMK QFE747

TAF per 55.31°N 61.5°E (USCC)

From till


From till Wind 90º 10kt. Gust 23kt. Visibility 6000m. Light Showers Rain . Broken Clouds 2000ft.
Temporarly from till Wind 70º 19kt. Gust 29kt. Visibility 2100m. Light Showers Rain Light Showers Snow . Broken Clouds 1100ft.

Grezzo: TAF USCC 240457Z 2406/2506 09005G12MPS 6000 -SHRA BKN020CB TEMPO 2406/2506 07010G15MPS 2100 -SHRASN BKN011CB

Radar per 55.31°N 61.5°E

Pioviggine
Lieve
Moderato
Forte
Molto forte
Grandine

Il segnaposto è situato a 55.31°N 61.5°E. Le croci arancioni indicano i fulmini. Dati forniti da nowcast.de (disponibili in USA, Europa e Australia). La pioviggine o una leggera nevicata potrebbero essere invisibili per il radar. L'intensità delle precipitazioni è codificata a colori, che vanno dal turchese al rosso.

Tempo in atto per 55.31°N 61.5°E: immagine satellitare e pioggia

Il segnaposto è situato a 55.31°N 61.5°E. [Più]

L'immagine satellitare in tempo reale combina la luce visibile durante il giorno con la radiazione infrarossa durante la notte. Di notte l'immagine non è scura poiché i raggi infrarossi possono rilevare differenze di temperatura. Purtroppo, le nuvole basse e la nebbia sono difficili da distinguere dalla temperatura del suolo e possono pertanto essere quasi invisibili durante la notte. Le immagini satellitari Meteosat per l'Europa vengono aggiornate in tempo reale ogni 5 minuti. Le immagini GOES-16 / GOES-17 (Nord e Sud America) e Himawari (Asia) vengono aggiornate ogni 10 minuti.

Le precipitazioni sono stimate da radar e satelliti. I calcoli delle precipitazioni dai satelliti sono meno accurati di notte che durante il giorno.

© 2024 meteoblue, NOAA Satellites GOES-16 and EUMETSAT. Fulminazioni fornite da nowcast.

Tornare su
×
Salve,
sembra che stiate usando un blocco degli annunci.

La pubblicità è essenziale per mantenere il nostro sito Web gratuito con dettagli e accuratezza unici.

Si prega di inserire www.meteoblue.com nella whitelist del vostro blocco degli annunci o di considerare l'acquisto di uno dei nostri prodotti:

Avete già un abbonamento?
Allora per favore eseguite il login.